K5AGY Weather Reports


Display with metric or nautical units.
time (UTC)temp
F
wind
direction
speed
MPH
gust
MPH
rain 1hr
in
rain 24hr
in
rain mn
in
humidity
%
barometer
mb
20260507064551 64 7 6.0 13.0 0.00 0.00 0.00 73 1014.0
20260507063030 64 11 6.0 12.0 0.00 0.00 0.00 73 1013.9
20260507061601 64 2 5.0 10.0 0.00 0.00 0.00 73 1013.7
20260507060031 64 360 5.0 15.0 0.00 0.00 0.00 73 1013.7
20260507054506 64 22 7.0 13.0 0.00 0.00 0.00 72 1014.0
20260507053041 64 349 6.0 13.0 0.00 0.00 0.00 72 1013.9
20260507051515 64 342 8.0 13.0 0.00 0.00 0.00 73 1014.0
20260507050047 64 33 8.0 12.0 0.00 0.00 0.00 72 1013.7
20260507044525 65 13 6.0 10.0 0.00 0.00 0.00 72 1013.6
20260507043058 65 8 5.0 13.0 0.00 0.00 0.00 73 1013.4
20260507041539 65 60 6.0 12.0 0.00 0.00 0.00 73 1013.2
20260507040007 65 13 5.0 13.0 0.00 0.00 0.00 72 1013.2
20260507034546 65 8 5.0 12.0 0.00 0.00 0.00 73 1012.9
20260507033019 65 360 6.0 13.0 0.00 0.00 0.00 72 1013.1
20260507031551 64 352 7.0 12.0 0.00 0.00 0.00 73 1013.0
20260507030024 64 10 6.0 11.0 0.00 0.00 0.00 73 1012.8
20260507024613 65 7 5.0 11.0 0.00 0.00 0.00 73 1012.4
20260507023028 64 349 6.0 12.0 0.00 0.00 0.00 72 1012.2
20260507021601 65 11 5.0 12.0 0.00 0.00 0.00 72 1012.1
20260507020036 65 8 9.0 16.0 0.00 0.00 0.00 72 1011.9
20260507014609 65 343 8.0 13.0 0.00 0.00 0.00 72 1011.6
20260507013027 65 319 9.0 17.0 0.00 0.00 0.00 72 1011.3
20260507011555 66 338 10.0 20.0 0.00 0.00 0.00 71 1010.8
20260507010022 67 350 11.0 18.0 0.00 0.00 0.00 70 1010.8
20260507004552 67 349 10.0 17.0 0.00 0.00 0.00 70 1010.3
20260507003027 68 342 11.0 20.0 0.00 0.00 0.00 69 1010.1
20260507001548 69 328 9.0 19.0 0.00 0.00 0.00 68 1009.9
20260507000015 71 3 10.0 17.0 0.00 0.00 0.00 68 1009.8
20260506234551 71 2 12.0 19.0 0.00 0.00 0.00 68 1009.7
20260506233010 72 342 9.0 18.0 0.00 0.00 0.00 68 1009.4
20260506231550 73 350 10.0 20.0 0.00 0.00 0.00 69 1009.1
20260506230013 75 339 11.0 19.0 0.00 0.00 0.00 68 1009.0
20260506224550 76 337 12.0 20.0 0.00 0.00 0.00 68 1008.7
20260506223037 78 7 11.0 18.0 0.00 0.00 0.00 67 1008.3
20260506221603 79 344 12.0 23.0 0.00 0.00 0.00 68 1008.1
20260506220036 81 4 11.0 18.0 0.00 0.00 0.00 68 1008.1
20260506214510 82 335 11.0 17.0 0.00 0.00 0.00 68 1008.1
20260506213101 84 335 5.0 9.0 0.00 0.00 0.00 67 1008.0
20260506211516 85 340 4.0 9.0 0.00 0.00 0.00 67 1007.9
20260506210101 86 321 4.0 7.0 0.00 0.00 0.00 66 1008.0
20260506204531 87 27 0.0 3.0 0.00 0.00 0.00 62 1008.0
20260506203006 88 75 2.0 5.0 0.00 0.00 0.00 61 1007.9
20260506201555 88 138 2.0 5.0 0.00 0.00 0.00 62 1008.0
20260506200017 89 79 1.0 3.0 0.00 0.00 0.00 60 1008.3
20260506194557 87 138 2.0 5.0 0.00 0.00 0.00 62 1008.4
20260506193022 88 147 3.0 7.0 0.00 0.00 0.00 63 1008.4
20260506191550 86 148 2.0 6.0 0.00 0.00 0.00 65 1008.6
20260506190022 86 51 2.0 5.0 0.00 0.00 0.00 66 1008.9
20260506184556 85 121 3.0 8.0 0.00 0.00 0.00 67 1008.9
20260506183021 83 60 2.0 6.0 0.00 0.00 0.00 69 1009.2
20260506181544 83 71 0.0 1.0 0.00 0.00 0.00 73 1009.4
20260506180019 83 77 1.0 5.0 0.00 0.00 0.00 72 1009.6
20260506174552 82 89 0.0 4.0 0.00 0.00 0.00 74 1009.7
20260506173016 81 100 2.0 6.0 0.00 0.00 0.00 73 1009.8
20260506171553 81 102 1.0 3.0 0.00 0.00 0.00 74 1010.0
20260506170023 81 39 1.0 5.0 0.00 0.00 0.00 75 1010.3
20260506164601 81 88 0.0 3.0 0.00 0.00 0.00 75 1010.5
20260506163028 80 101 0.0 5.0 0.00 0.00 0.00 76 1010.4
20260506161601 80 111 2.0 4.0 0.00 0.00 0.00 76 1010.2
20260506160028 80 77 1.0 5.0 0.00 0.00 0.00 78 1009.8
20260506154554 79 110 5.0 8.0 0.00 0.00 0.00 78 1009.3
20260506153028 79 82 2.0 5.0 0.00 0.00 0.00 78 1009.2
20260506151502 79 80 3.0 5.0 0.00 0.00 0.00 78 1009.3
20260506150028 79 110 5.0 7.0 0.00 0.00 0.00 78 1009.1
20260506144608 78 96 2.0 6.0 0.00 0.00 0.00 80 1009.0
20260506143033 77 139 1.0 5.0 0.00 0.00 0.00 81 1008.8
20260506141557 77 122 2.0 9.0 0.00 0.00 0.00 81 1008.6
20260506140025 76 111 4.0 9.0 0.00 0.00 0.00 83 1008.3
20260506134559 76 128 4.0 8.0 0.00 0.00 0.00 83 1008.4
20260506133037 76 84 4.0 7.0 0.00 0.00 0.00 84 1008.4
20260506131512 75 81 3.0 7.0 0.00 0.00 0.00 85 1008.4
20260506130058 75 105 2.0 5.0 0.00 0.00 0.00 86 1008.4
20260506124526 74 109 2.0 5.0 0.00 0.00 0.00 86 1008.3
20260506123003 74 104 1.0 3.0 0.00 0.00 0.00 86 1008.2
20260506121548 74 111 1.0 3.0 0.00 0.00 0.00 86 1008.2
20260506120025 74 103 0.0 2.0 0.00 0.00 0.00 86 1008.1
20260506114556 74 135 0.0 3.0 0.00 0.00 0.00 85 1008.0
20260506113035 74 132 1.0 7.0 0.00 0.00 0.00 85 1007.9
20260506111510 74 123 4.0 7.0 0.00 0.00 0.00 85 1007.7
20260506110047 74 118 2.0 4.0 0.00 0.00 0.00 85 1007.8
20260506104523 74 122 0.0 5.0 0.00 0.00 0.00 85 1007.7
20260506103129 74 143 1.0 6.0 0.00 0.00 0.00 86 1007.6
20260506101538 74 175 0.0 3.0 0.00 0.00 0.00 85 1007.5
20260506100013 74 152 1.0 4.0 0.00 0.00 0.00 85 1007.5
20260506094552 73 174 1.0 4.0 0.00 0.00 0.00 85 1007.4
20260506093025 73 162 0.0 4.0 0.00 0.00 0.00 85 1007.5
20260506091502 74 167 1.0 4.0 0.00 0.00 0.00 85 1007.5
20260506090047 74 144 2.0 4.0 0.00 0.00 0.00 85 1007.4
20260506084517 74 184 1.0 3.0 0.00 0.00 0.00 85 1007.3
20260506083054 74 153 1.0 6.0 0.00 0.00 0.00 85 1007.3
20260506081531 74 162 1.0 4.0 0.00 0.00 0.00 84 1007.1
20260506073001 74 180 1.0 6.0 0.00 0.00 0.00 83 1007.8
20260506071530 75 106 3.0 8.0 0.00 0.00 0.00 83 1008.0